Location: Monrovia
(34.7865°N, 86.7139°W)
Time: 21:57:29
(UTC+00:00)

Cosmos 1980 Rocket - Pass Details

Date: 14 July 2020
Orbit: 828 x 851 km, 71.0° (Epoch: 08 August)

Event Time Altitude Azimuth Distance (km) Brightness Sun altitude
Rises 08:30:57 0° 341° (NNW) 3,421 5.8 -22.3°
Reaches altitude 10° 08:33:26 10° 345° (NNW) 2,481 5.1 -22.0°
Maximum altitude 08:39:06 67° 67° (ENE) 917 2.5 -21.2°
Drops below altitude 10° 08:44:43 10° 150° (SSE) 2,456 4.4 -20.4°
Sets 08:47:10 0° 153° (SSE) 3,384 5.1 -20.1°
